Location: ??????
(56.0120°N, 39.1740°E)
Time: 09:47:43
(UTC+00:00)

Cosmos 2242 Rocket - Pass Details

Date: 14 April 2026
Orbit: 612 x 646 km, 82.5° (Epoch: 18 May)

Event Time Altitude Azimuth Distance (km) Brightness Sun altitude
Rises 18:23:05 0° 345° (NNW) 2,957 8.1 -14.5°
Reaches altitude 10° 18:25:22 10° 341° (NNW) 2,038 7.2 -14.7°
Maximum altitude 18:29:47 55° 264° (W) 767 4.2 -15.2°
Enters shadow 18:33:43 12° 189° (S) 1,848 5.6 -15.6°
